This is the latest recevied weather packets stored in our database for station/object N4WFF. If no packets are shown the sender has not sent any weather packets the latest 10 day(s).
| Time | Temp. | Humidity | Pressure | Rain* | Wind** | Luminosity | Snow |
|---|---|---|---|---|---|---|---|
| 1777559156 | 20° C | 90% | 1013 hPa | 0 mm | - | 469 W/m² | - |
| 1777558856 | 20.56° C | 89% | 1012.7 hPa | 0 mm | - | 175 W/m² | - |
| 1777558557 | 20.56° C | 89% | 1012.7 hPa | 0 mm | - | 277 W/m² | - |
| 1777558257 | 20° C | 90% | 1012.5 hPa | 0 mm | - | 391 W/m² | - |
| 1777557956 | 19.44° C | 91% | 1012.6 hPa | 0 mm | - | 569 W/m² | - |
| 1777557656 | 19.44° C | 92% | 1012.5 hPa | 0 mm | - | 665 W/m² | - |
| 1777557356 | 18.89° C | 93% | 1012.3 hPa | 0 mm | - | 295 W/m² | - |
| 1777557056 | 18.89° C | 94% | 1012.2 hPa | 0 mm | - | 301 W/m² | - |
| 1777556756 | 18.33° C | 95% | 1012.2 hPa | 0 mm | - | 509 W/m² | - |
| 1777556456 | 18.33° C | 96% | 1012.1 hPa | 0 mm | - | 256 W/m² | - |
| 1777556157 | 18.33° C | 96% | 1011.9 hPa | 0 mm | - | 195 W/m² | - |
| 1777555856 | 18.33° C | 97% | 1012 hPa | 0 mm | - | 199 W/m² | - |
| 1777555556 | 18.33° C | 96% | 1012.1 hPa | 0 mm | - | 188 W/m² | - |
| 1777555256 | 18.33° C | 97% | 1012.2 hPa | 0 mm | - | 172 W/m² | - |
| 1777554956 | 17.78° C | 97% | 1012.3 hPa | 0 mm | - | 158 W/m² | - |
| 1777554656 | 17.78° C | 97% | 1012.4 hPa | 0 mm | - | 117 W/m² | - |
| 1777554356 | 17.78° C | 97% | 1012.5 hPa | 0 mm | - | 109 W/m² | - |
| 1777554056 | 17.78° C | 97% | 1012.5 hPa | 0 mm | - | 109 W/m² | - |
| 1777553756 | 17.78° C | 97% | 1012.5 hPa | 0 mm | - | 101 W/m² | - |
| 1777553456 | 17.78° C | 97% | 1012.5 hPa | 0 mm | - | 91 W/m² | - |
| 1777553155 | 17.78° C | 97% | 1012.3 hPa | 0 mm | - | 71 W/m² | - |
| 1777552855 | 17.78° C | 97% | 1012.2 hPa | 0 mm | - | 69 W/m² | - |
| 1777552555 | 17.78° C | 97% | 1012.1 hPa | 0 mm | - | 69 W/m² | - |
| 1777552256 | 17.78° C | 97% | 1012.2 hPa | 0 mm | - | 79 W/m² | - |
| 1777551956 | 17.78° C | 97% | 1012 hPa | 0 mm | - | 58 W/m² | - |
* Rain latest hour (hover to see other rain measurements)
** Current wind speed in m/s (hover to see current wind gust speed)